Zurück zum Katalog

STARLINK-30803

AktivKommunikationVLEO
NORAD 58157·PAYLOAD·🇺🇸 United States

Gestartet Oct 29, 2023 von Vandenberg Space Force Base

Loading…

Nächste Überflüge (nächste 24 Stunden)

TLE

AktuellSource: CelesTrak SupGP

Epoche: Sep 15, 2026, 03:07 UTC

1 58157C 23166H   26258.13034722 -.00024638  00000+0 -79255-3 0  2582
2 58157  53.1589  58.2086 0001103  86.7291 288.3922 15.31704680    16

Verfolge STARLINK-30803 in Echtzeit mit AllMySat

Download on the App Store